Location: Seasalter
(51.3333°N, 1.0167°E)
Time: 18:46:11
(UTC+00:00)

CZ-2C R/B - Pass Details

Date: 26 September 2023
Orbit: 702 x 906 km, 98.1° (Epoch: 08 December)

Event Time Altitude Azimuth Distance (km) Brightness Sun altitude
Rises 03:12:53 0° 14° (NNE) 3,548 7.1 -23.9°
Reaches altitude 10° 03:15:19 10° 15° (NNE) 2,603 6.3 -23.6°
Maximum altitude 03:21:12 86° 105° (ESE) 908 3.3 -22.8°
Enters shadow 03:23:56 33° 192° (SSW) 1,452 4.1 -22.4°
